"datetime","# probes","# resolvers","can_ipv6","can_ipv6_prbs","can_tcp","can_tcp_prbs","can_tcp6","can_tcp6_prbs","does_ecs","does_ecs_prbs","does_flagday","does_flagday_prbs","does_rov4","does_rov4_prbs","does_rov6","does_rov6_prbs","does_qnamemin","doesnt_qnamemin","does_qnamemin_prbs","doesnt_qnamemin_prbs","does_nxdomain","doesnt_nxdomain","does_nxdomain_prbs","doesnt_nxdomain_prbs","has_ta_19036","hasnt_ta_19036","has_ta_19036_prbs","hasnt_ta_19036_prbs","has_ta_20326","hasnt_ta_20326","has_ta_20326_prbs","hasnt_ta_20326_prbs","can_rsamd5","cannot_rsamd5","broken_rsamd5","can_rsamd5_prbs","cannot_rsamd5_prbs","broken_rsamd5_prbs","can_dsa","cannot_dsa","broken_dsa","can_dsa_prbs","cannot_dsa_prbs","broken_dsa_prbs","can_rsasha1","cannot_rsasha1","broken_rsasha1","can_rsasha1_prbs","cannot_rsasha1_prbs","broken_rsasha1_prbs","can_dsansec3","cannot_dsansec3","broken_dsansec3","can_dsansec3_prbs","cannot_dsansec3_prbs","broken_dsansec3_prbs","can_rsansec3","cannot_rsansec3","broken_rsansec3","can_rsansec3_prbs","cannot_rsansec3_prbs","broken_rsansec3_prbs","can_rsasha256","cannot_rsasha256","broken_rsasha256","can_rsasha256_prbs","cannot_rsasha256_prbs","broken_rsasha256_prbs","can_rsasha512","cannot_rsasha512","broken_rsasha512","can_rsasha512_prbs","cannot_rsasha512_prbs","broken_rsasha512_prbs","can_eccgost","cannot_eccgost","broken_eccgost","can_eccgost_prbs","cannot_eccgost_prbs","broken_eccgost_prbs","can_ecdsa256","cannot_ecdsa256","broken_ecdsa256","can_ecdsa256_prbs","cannot_ecdsa256_prbs","broken_ecdsa256_prbs","can_ecdsa384","cannot_ecdsa384","broken_ecdsa384","can_ecdsa384_prbs","cannot_ecdsa384_prbs","broken_ecdsa384_prbs","can_ed25519","cannot_ed25519","broken_ed25519","can_ed25519_prbs","cannot_ed25519_prbs","broken_ed25519_prbs","can_ed448","cannot_ed448","broken_ed448","can_ed448_prbs","cannot_ed448_prbs","broken_ed448_prbs","can_gost","cannot_gost","broken_gost","can_gost_prbs","cannot_gost_prbs","broken_gost_prbs","can_sha384","cannot_sha384","broken_sha384","can_sha384_prbs","cannot_sha384_prbs","broken_sha384_prbs","is_internal","is_forwarding","is_external","is_internal_prbs","is_forwarding_prbs","is_external_prbs"
2017-06-20T23:59:58Z,27,29,17,19,29,27,14,17,0,2,0,0,0,0,0,0,1,28,3,27,0,28,0,26,0,0,0,0,0,0,0,0,2,27,0,3,26,3,8,21,0,16,20,1,8,21,0,16,20,1,7,22,0,16,21,1,7,22,0,16,21,1,7,22,0,16,21,1,7,22,0,16,21,1,0,29,0,9,27,1,7,22,0,15,21,1,6,22,1,14,21,2,0,28,1,0,26,2,0,28,1,0,26,2,0,29,0,9,27,1,6,22,0,14,21,1,22,7,0,20,8,8
2017-06-21T23:59:59Z,26,28,16,18,28,26,14,17,0,2,0,0,0,0,0,0,1,27,3,26,0,28,0,26,0,0,0,0,0,0,0,0,2,26,0,3,25,3,8,20,0,15,19,1,8,20,0,15,19,1,7,21,0,15,20,1,7,21,0,15,20,1,7,21,0,15,20,1,7,21,0,15,20,1,0,28,0,8,26,1,7,21,0,14,20,1,7,21,0,14,20,1,0,28,0,0,26,1,0,28,0,0,26,1,1,27,0,8,25,1,6,21,0,13,20,1,22,6,0,20,7,7
2017-06-22T23:59:58Z,26,28,16,18,28,26,13,16,1,3,0,0,0,0,0,0,1,27,3,26,0,28,0,26,0,0,0,0,0,0,0,0,2,26,0,3,25,3,7,21,0,14,20,1,7,21,0,14,20,1,5,23,0,13,22,1,6,22,0,14,21,1,6,22,0,14,21,1,6,22,0,14,21,1,0,28,0,8,26,1,6,22,0,13,21,1,6,22,0,13,21,1,0,28,0,0,26,1,0,28,0,0,26,1,1,27,0,9,25,1,5,22,0,12,21,1,22,6,0,20,7,7
2017-06-23T23:59:59Z,24,26,15,17,26,24,13,15,1,3,0,0,0,0,0,0,1,25,3,24,0,26,0,24,0,0,0,0,0,0,0,0,2,24,0,3,23,3,6,20,0,13,19,1,6,20,0,13,19,1,5,21,0,12,20,1,6,20,0,13,19,1,6,20,0,13,19,1,6,20,0,13,19,1,0,26,0,7,24,1,7,19,0,12,18,1,7,19,0,12,18,1,0,26,0,0,24,1,0,26,0,0,24,1,2,24,0,8,22,1,5,20,0,11,19,1,21,5,0,19,6,6
2017-06-24T23:59:59Z,24,26,15,17,26,24,13,16,0,2,0,0,0,0,0,0,1,25,3,24,0,26,0,24,0,0,0,0,0,0,0,0,2,24,0,3,23,3,5,21,0,13,20,1,5,21,0,13,20,1,5,21,0,13,20,1,5,21,0,13,20,1,5,21,0,13,20,1,5,21,0,13,20,1,0,26,0,8,24,1,6,20,0,12,19,1,6,20,0,12,19,1,0,26,0,0,24,1,0,26,0,0,24,1,0,26,0,8,24,1,4,21,0,11,20,1,20,6,0,18,7,8
2017-06-25T23:59:49Z,26,29,17,18,29,26,14,16,1,3,0,0,0,0,0,0,3,26,4,25,0,29,0,26,0,0,0,0,0,0,0,0,2,27,0,3,25,3,7,22,0,13,20,1,7,22,0,13,20,1,6,23,0,13,21,1,6,22,1,13,20,2,6,23,0,13,21,1,6,23,0,13,21,1,0,29,0,7,26,1,6,23,0,12,21,1,6,23,0,12,21,1,0,29,0,0,26,1,0,29,0,0,26,1,1,28,0,8,25,1,6,22,0,11,20,1,22,7,0,20,7,7
2017-06-26T23:59:49Z,26,29,17,18,29,26,16,17,0,2,0,0,0,0,0,0,3,26,4,25,0,29,0,26,0,0,0,0,0,0,0,0,3,26,0,3,25,3,7,22,0,14,20,1,7,22,0,14,20,1,7,22,0,14,20,1,7,22,0,14,20,1,7,22,0,14,20,1,7,22,0,14,20,1,0,29,0,8,26,1,7,22,0,13,20,1,7,22,0,13,20,1,0,29,0,0,26,1,0,29,0,0,26,1,0,28,1,8,25,2,6,22,0,12,20,1,20,9,0,18,9,7
2017-06-27T23:59:59Z,24,26,14,16,26,24,12,15,0,1,0,0,0,0,0,0,1,25,3,24,0,26,0,24,0,0,0,0,0,0,0,0,3,23,0,4,23,2,8,18,0,13,17,1,8,18,0,13,17,1,7,19,0,13,18,1,7,19,0,13,18,1,7,19,0,13,18,1,7,19,0,13,18,1,0,26,0,7,24,1,7,19,0,12,18,1,7,19,0,12,18,1,0,26,0,0,24,1,0,26,0,0,24,1,0,26,0,7,24,1,6,19,0,11,18,1,20,6,0,18,7,6
2017-06-28T23:59:51Z,28,30,17,19,30,28,14,17,1,2,0,0,0,0,0,0,1,29,3,28,0,30,0,28,0,0,0,0,0,0,0,0,3,27,0,5,26,3,9,21,0,16,20,1,9,21,0,16,20,2,7,23,0,15,22,1,8,22,0,16,21,2,8,22,0,16,21,1,8,22,0,16,21,1,0,30,0,7,28,2,8,22,0,15,21,2,8,22,0,15,21,2,0,30,0,1,28,1,0,30,0,0,28,1,1,29,0,8,27,2,8,21,0,14,20,1,22,8,0,20,9,8
2017-06-29T23:59:59Z,26,28,16,18,28,26,14,17,0,2,0,0,0,0,0,0,2,26,4,26,0,28,0,26,0,0,0,0,0,0,0,0,3,25,0,4,25,2,8,20,0,15,20,1,8,20,0,15,20,1,8,20,0,15,20,1,8,20,0,15,20,1,8,20,0,15,20,1,8,20,0,15,20,1,0,28,0,7,26,1,8,20,0,14,20,1,8,20,0,14,20,1,0,28,0,0,26,1,0,28,0,0,26,1,0,28,0,7,26,1,7,20,0,13,20,1,21,7,0,19,8,8
2017-06-30T23:59:59Z,27,29,16,18,29,27,13,17,1,3,0,0,0,0,0,0,2,27,4,27,0,29,0,27,0,0,0,0,0,0,0,0,3,26,0,4,26,2,9,20,0,16,20,1,9,20,0,16,20,1,8,21,0,15,21,1,9,20,0,16,20,1,9,20,0,16,20,1,9,20,0,16,20,1,0,29,0,8,27,1,10,19,0,15,19,1,10,19,0,15,19,1,0,29,0,0,27,1,0,29,0,0,27,1,1,28,0,9,26,1,9,19,0,14,19,1,21,8,0,19,9,8
2017-07-01T23:59:49Z,26,28,15,17,28,26,12,16,0,2,0,0,0,0,0,0,1,27,3,26,0,28,0,26,0,0,0,0,0,0,0,0,3,25,0,4,25,2,9,19,0,14,19,1,9,19,0,14,19,1,8,20,0,14,20,1,8,20,0,14,20,1,8,20,0,14,20,1,8,20,0,14,20,1,0,28,0,7,26,1,9,19,0,13,19,1,9,19,0,13,19,1,0,28,0,0,26,1,0,28,0,0,26,1,0,28,0,7,26,1,7,20,0,12,20,1,21,7,0,19,8,7
2017-07-02T23:59:59Z,28,30,17,20,30,28,14,19,0,2,0,0,0,0,0,0,3,27,5,27,0,30,0,28,0,0,0,0,0,0,0,0,3,27,0,4,27,3,9,21,0,17,21,2,9,21,0,17,21,2,9,21,0,17,21,2,9,21,0,17,21,2,9,21,0,17,21,2,9,21,0,17,21,2,0,30,0,9,28,2,9,21,0,16,21,2,9,21,0,16,21,2,0,30,0,0,28,2,0,30,0,0,28,2,0,30,0,9,28,2,8,21,0,15,21,2,22,8,0,20,9,8
2017-07-03T23:59:51Z,28,32,18,20,32,28,16,19,0,2,0,0,0,0,0,0,3,29,4,27,0,32,0,28,0,0,0,0,0,0,0,0,3,29,0,4,27,3,9,23,0,16,21,2,9,23,0,16,21,2,9,23,0,16,21,2,9,23,0,16,21,2,9,23,0,16,21,2,9,23,0,16,21,2,0,32,0,7,28,2,9,23,0,15,21,2,9,23,0,15,21,2,0,32,0,0,28,2,0,32,0,0,28,2,0,32,0,7,28,2,8,23,0,14,21,2,25,7,0,21,8,7
2017-07-04T23:59:51Z,31,35,21,23,35,31,17,21,0,2,0,0,0,0,0,0,4,31,5,30,0,35,0,31,0,0,0,0,0,0,0,0,3,32,0,5,30,3,11,24,0,19,22,2,11,24,0,19,22,2,10,25,0,19,23,2,10,25,0,19,23,2,10,25,0,19,23,2,10,25,0,19,23,2,0,35,0,9,31,2,10,25,0,18,23,2,10,25,0,18,23,2,0,35,0,0,31,2,0,35,0,0,31,2,0,35,0,9,31,2,9,25,0,17,23,2,27,8,0,23,9,9
2017-07-05T23:59:59Z,30,34,20,22,34,30,16,20,0,2,0,0,0,0,0,0,3,31,4,29,0,34,0,30,0,0,0,0,0,0,0,0,3,31,0,5,29,3,10,24,0,19,22,2,10,24,0,19,22,2,10,24,0,19,22,2,10,24,0,19,22,2,10,24,0,19,22,2,10,24,0,19,22,2,0,34,0,9,30,2,11,23,0,18,21,2,11,23,0,18,21,2,0,34,0,0,30,2,0,34,0,0,30,2,0,34,0,9,30,2,9,24,0,17,22,2,26,8,0,22,9,9
2017-07-06T23:59:59Z,31,35,20,22,35,31,15,19,0,2,0,0,0,0,0,0,4,31,5,30,0,35,0,31,0,0,0,0,0,0,0,0,3,32,0,5,30,3,11,24,0,19,22,2,11,24,0,19,22,2,10,25,0,19,23,2,10,25,0,19,23,2,10,25,0,19,23,2,10,25,0,19,23,2,0,35,0,9,31,2,11,24,0,18,22,2,11,24,0,18,22,2,0,35,0,0,31,2,0,35,0,0,31,2,0,35,0,9,31,2,9,25,0,17,23,2,26,9,0,22,10,9
2017-07-07T23:59:49Z,28,32,18,20,32,28,15,18,0,2,0,0,0,0,0,0,4,28,5,27,0,32,0,28,0,0,0,0,0,0,0,0,3,29,0,3,27,3,10,22,0,17,20,2,10,22,0,17,20,2,10,22,0,17,20,2,10,22,0,17,20,2,10,22,0,17,20,2,10,22,0,17,20,2,0,32,0,8,28,2,10,22,0,16,20,2,10,22,0,16,20,2,0,32,0,0,28,2,0,32,0,0,28,2,0,32,0,8,28,2,9,22,0,15,20,2,24,8,0,20,9,7
2017-07-08T23:59:51Z,29,33,19,21,33,29,16,19,0,2,0,0,0,0,0,0,3,30,4,28,0,33,0,29,0,0,0,0,0,0,0,0,3,30,0,4,28,3,10,23,0,17,21,2,10,23,0,17,21,2,10,23,0,17,21,2,10,23,0,17,21,2,10,23,0,17,21,2,10,23,0,17,21,2,0,33,0,7,29,2,10,23,0,16,21,2,10,23,0,16,21,2,0,33,0,0,29,2,0,33,0,0,29,2,0,33,0,7,29,2,9,23,0,15,21,2,26,7,0,22,8,7
2017-07-09T23:59:50Z,29,33,19,21,33,29,15,19,0,2,0,0,0,0,0,0,3,30,4,28,0,33,0,29,0,0,0,0,0,0,0,0,3,30,0,5,28,3,10,23,0,18,21,2,10,23,0,18,21,2,11,22,0,19,20,2,10,23,0,18,21,2,10,23,0,18,21,2,10,23,0,18,21,2,0,33,0,8,29,2,11,22,0,17,20,2,11,22,0,17,20,2,0,33,0,0,29,2,0,33,0,0,29,2,0,33,0,8,29,2,9,23,0,16,21,2,26,7,0,22,8,8
2017-07-10T23:59:59Z,30,34,19,21,34,30,16,19,0,2,0,0,0,0,0,0,3,31,4,29,0,34,0,30,0,0,0,0,0,0,0,0,3,31,0,4,29,3,10,24,0,18,22,2,10,24,0,18,22,2,10,24,0,18,22,2,10,24,0,18,22,2,11,23,0,18,22,2,10,24,0,18,22,2,0,34,0,8,30,2,10,24,0,17,22,2,10,24,0,17,22,2,0,34,0,0,30,2,0,34,0,0,30,2,0,34,0,8,30,2,9,24,0,16,22,2,25,9,0,21,10,8
2017-07-11T23:59:59Z,29,33,18,20,33,29,15,18,0,2,0,0,0,0,0,0,3,30,4,28,0,33,0,29,0,0,0,0,0,0,0,0,3,30,0,4,28,3,10,23,0,17,21,2,10,23,0,17,21,2,10,23,0,17,21,2,11,22,0,17,21,2,10,23,0,17,21,2,10,23,0,17,21,2,0,33,0,7,29,2,11,22,0,16,21,2,11,22,0,16,21,2,0,33,0,0,29,2,0,33,0,0,29,2,0,33,0,7,29,2,9,23,0,15,21,2,26,7,0,22,8,7
2017-07-12T23:59:59Z,30,34,19,21,34,30,15,19,0,2,0,0,0,0,0,0,3,31,4,29,0,34,0,30,0,0,0,0,0,0,0,0,3,31,0,4,29,3,10,24,0,17,22,2,10,24,0,17,22,2,10,24,0,17,22,2,10,24,0,17,22,2,10,24,0,17,22,2,10,24,0,17,22,2,0,34,0,8,30,2,11,23,0,16,21,2,11,23,0,16,21,2,0,34,0,0,30,2,0,34,0,0,30,2,0,34,0,8,30,2,9,24,0,15,22,2,26,8,0,22,9,7
2017-07-13T23:59:59Z,29,33,19,21,33,29,15,19,0,2,0,0,0,0,0,0,4,29,5,28,0,33,0,29,0,0,0,0,0,0,0,0,4,29,0,5,28,3,10,23,0,17,21,2,10,23,0,17,21,2,10,23,0,17,21,2,10,23,0,17,21,2,10,23,0,17,21,2,10,23,0,17,21,2,0,33,0,7,29,2,11,22,0,16,21,2,10,23,0,16,21,2,0,33,0,0,29,2,0,33,0,0,29,2,0,33,0,7,29,2,9,23,0,15,21,2,26,7,0,22,8,7
2017-07-14T23:59:51Z,29,33,18,20,33,29,14,18,0,2,0,0,0,0,0,0,4,29,5,28,0,33,0,29,0,0,0,0,0,0,0,0,3,30,0,4,28,3,10,23,0,16,21,2,10,23,0,16,21,2,10,23,0,16,21,2,10,23,0,16,21,2,10,23,0,16,21,2,10,23,0,16,21,2,0,33,0,7,29,2,10,23,0,15,21,2,11,22,0,15,20,2,0,33,0,0,29,2,0,33,0,0,29,2,0,33,0,7,29,2,9,23,0,14,21,2,25,8,0,21,9,6
2017-07-15T23:59:51Z,29,34,20,21,34,29,16,19,0,2,0,0,0,0,0,0,3,31,4,28,0,34,0,29,0,0,0,0,0,0,0,0,3,31,0,4,28,3,10,24,0,17,21,2,10,24,0,17,21,2,10,24,0,17,21,2,10,24,0,17,21,2,10,24,0,17,21,2,10,24,0,17,21,2,0,34,0,8,29,2,11,23,0,16,20,2,11,23,0,16,20,2,0,34,0,0,29,2,0,34,0,0,29,2,1,33,0,8,28,2,10,23,0,15,20,2,27,7,0,22,8,6
2017-07-16T23:59:59Z,30,35,20,21,35,30,16,19,0,2,0,0,0,0,0,0,3,32,4,29,0,35,0,30,0,0,0,0,0,0,0,0,3,32,0,4,29,3,11,24,0,17,21,2,11,24,0,17,21,2,10,25,0,17,22,2,10,25,0,17,22,2,10,25,0,17,22,2,10,25,0,17,22,2,0,35,0,8,30,2,11,24,0,16,21,2,11,24,0,16,21,2,0,35,0,0,30,2,0,35,0,0,30,2,0,35,0,8,30,2,9,25,0,15,22,2,28,7,0,23,8,6
2017-07-17T23:59:49Z,31,36,22,23,36,31,18,21,0,2,0,0,0,0,0,0,3,33,4,30,0,36,0,31,0,0,0,0,0,0,0,0,3,33,0,5,30,3,11,25,0,19,22,2,11,25,0,19,22,2,10,26,0,19,23,2,10,26,0,19,23,2,10,26,0,19,23,2,10,26,0,19,23,2,0,36,0,9,31,2,10,26,0,18,23,2,10,26,0,18,23,2,0,36,0,0,31,2,0,36,0,0,31,2,0,36,0,9,31,2,9,26,0,17,23,2,28,8,0,23,9,8
2017-07-18T23:59:49Z,32,37,22,23,37,32,18,21,0,2,0,0,0,0,0,0,3,34,4,31,0,37,0,32,0,0,0,0,0,0,0,0,3,34,0,5,31,3,10,27,0,19,24,2,10,27,0,19,24,2,10,27,0,19,24,2,10,27,0,19,24,2,10,27,0,19,24,2,10,27,0,19,24,2,0,37,0,9,32,2,11,26,0,18,23,2,11,26,0,18,23,2,0,37,0,0,32,2,0,37,0,0,32,2,0,37,0,9,32,2,10,26,0,17,23,2,28,9,0,23,10,8
2017-07-19T23:59:50Z,30,35,21,22,35,30,17,19,0,2,0,0,0,0,0,0,3,32,4,29,0,35,0,30,0,0,0,0,0,0,0,0,3,32,0,5,29,3,11,24,0,18,21,2,11,24,0,18,21,2,10,25,0,18,22,2,10,25,0,18,22,2,10,25,0,18,22,2,10,25,0,18,22,2,0,35,0,8,30,2,10,25,0,17,22,2,10,25,0,17,22,2,0,35,0,0,30,2,0,35,0,0,30,2,0,35,0,8,30,2,9,25,0,16,22,2,28,7,0,23,8,7
2017-07-20T23:59:49Z,30,34,20,22,34,30,15,18,0,2,0,0,0,0,0,0,3,31,4,29,0,34,0,30,0,0,0,0,0,0,0,0,3,31,0,5,29,3,11,23,0,18,21,2,11,23,0,18,21,2,10,24,0,18,22,2,10,24,0,18,22,2,10,24,0,18,22,2,10,24,0,18,22,2,0,34,0,8,30,2,10,24,0,17,22,2,10,24,0,17,22,2,0,34,0,0,30,2,0,34,0,0,30,2,1,33,0,8,29,2,9,24,0,16,22,2,27,7,0,23,9,7
2017-07-21T23:59:50Z,30,35,20,22,35,30,16,17,0,2,0,0,0,0,0,0,3,32,4,29,0,35,0,30,0,0,0,0,0,0,0,0,3,32,0,4,29,3,10,25,0,18,22,2,10,25,0,18,22,2,10,25,0,18,22,2,10,25,0,18,22,2,10,25,0,18,22,2,10,25,0,18,22,2,0,35,0,8,30,2,10,25,0,17,22,2,10,25,0,17,22,2,0,35,0,0,30,2,0,35,0,0,30,2,0,35,0,8,30,2,9,25,0,16,22,2,28,7,0,23,8,6
2017-07-22T23:59:51Z,32,37,21,23,37,32,17,18,0,2,0,0,0,0,0,0,4,33,5,31,0,37,0,32,0,0,0,0,0,0,0,0,3,34,0,4,31,3,10,27,0,19,24,2,10,27,0,19,24,2,10,27,0,19,24,2,10,27,0,19,24,2,10,27,0,19,24,2,11,26,0,19,24,2,0,37,0,9,32,2,10,27,0,18,24,2,10,27,0,18,24,2,0,37,0,0,32,2,0,37,0,0,32,2,0,37,0,9,32,2,9,27,0,17,24,2,28,9,0,23,10,7
2017-07-23T23:59:51Z,29,34,20,21,34,29,16,16,0,2,0,0,0,0,0,0,3,31,4,28,0,34,0,29,0,0,0,0,0,0,0,0,3,31,0,4,28,3,11,23,0,17,20,2,11,23,0,17,20,2,10,24,0,17,21,2,10,24,0,17,21,2,10,24,0,17,21,2,10,24,0,17,21,2,0,34,0,8,29,2,10,24,0,16,21,2,10,24,0,16,21,2,0,34,0,0,29,2,0,34,0,0,29,2,0,34,0,8,29,2,9,24,0,15,21,2,27,7,0,22,8,6
2017-07-24T23:59:51Z,31,36,21,22,36,31,17,17,0,2,0,0,0,0,0,0,3,33,4,30,0,36,0,31,0,0,0,0,0,0,0,0,3,33,0,4,30,3,12,24,0,18,22,2,12,24,0,18,22,2,11,25,0,18,23,2,11,25,0,18,23,2,11,25,0,18,23,2,11,25,0,18,23,2,0,36,0,9,31,2,12,24,0,17,22,2,12,24,0,17,22,2,0,36,0,0,31,2,0,36,0,0,31,2,0,36,0,9,31,2,11,24,0,16,22,2,29,7,0,24,8,7
2017-07-25T23:59:51Z,31,36,22,23,36,31,18,18,0,2,0,0,0,0,0,0,3,33,4,30,0,36,0,31,0,0,0,0,0,0,0,0,4,32,0,5,30,3,11,25,0,19,23,2,11,25,0,19,23,2,11,25,0,19,23,2,11,25,0,19,23,2,11,25,0,19,23,2,11,25,0,19,23,2,0,36,0,9,31,2,11,25,0,18,23,2,11,25,0,18,23,2,0,36,0,0,31,2,0,36,0,0,31,2,0,36,0,9,31,2,11,24,0,17,22,2,29,7,0,24,8,8
2017-07-26T23:59:51Z,32,37,22,23,37,32,18,18,0,2,0,0,0,0,0,0,3,34,4,31,0,37,0,32,0,0,0,0,0,0,0,0,3,34,0,4,31,3,12,25,0,19,23,2,12,25,0,19,23,2,11,26,0,19,24,2,11,26,0,19,24,2,11,26,0,19,24,2,11,26,0,19,24,2,0,37,0,10,32,2,11,26,0,18,24,2,11,26,0,18,24,2,0,37,0,0,32,2,0,37,0,0,32,2,0,37,0,10,32,2,10,26,0,17,24,2,28,9,0,23,10,8
2017-07-27T23:59:59Z,31,36,23,23,36,31,19,18,0,1,0,0,0,0,0,0,3,33,4,30,0,36,0,31,0,0,0,0,0,0,0,0,3,33,0,5,30,2,12,24,0,19,22,2,12,24,0,19,22,2,12,24,0,19,23,2,12,24,0,19,23,2,12,24,0,19,23,2,12,24,0,19,23,2,0,36,0,9,31,2,11,25,0,18,23,2,11,25,0,18,23,2,0,36,0,0,31,2,0,36,0,0,31,2,0,36,0,9,31,2,10,25,0,17,23,2,28,8,0,23,9,8
2017-07-28T23:59:51Z,28,33,20,20,33,28,16,15,0,1,0,0,0,0,0,0,3,30,4,27,0,33,0,28,0,0,0,0,0,0,0,0,3,30,0,3,27,2,11,22,0,16,20,2,11,22,0,16,20,2,11,22,0,16,20,2,11,22,0,16,20,2,11,22,0,16,20,2,11,22,0,16,20,2,0,33,0,7,28,2,11,22,0,15,20,2,11,22,0,15,20,2,0,33,0,0,28,2,0,33,0,0,28,2,0,33,0,7,28,2,10,22,0,14,20,2,26,7,0,21,8,5
2017-07-29T23:59:51Z,30,36,23,22,36,30,19,17,0,1,0,0,0,0,0,0,6,30,6,28,0,36,0,30,0,0,0,0,0,0,0,0,3,33,0,4,29,2,14,22,0,18,20,2,14,22,0,18,20,2,13,23,0,18,21,2,13,23,0,18,21,2,13,23,0,18,21,2,13,23,0,18,21,2,0,36,0,8,30,2,14,22,0,17,20,2,14,22,0,17,20,2,0,36,0,0,30,2,0,36,0,0,30,2,0,36,0,8,30,2,12,23,0,16,21,2,27,8,1,22,9,7
2017-07-30T23:59:48Z,28,33,21,20,33,28,17,16,0,1,0,0,0,0,0,0,5,28,5,26,0,33,0,28,0,0,0,0,0,0,0,0,3,30,0,3,27,2,13,20,0,16,19,2,13,20,0,16,19,2,13,20,0,16,19,2,13,20,0,16,19,2,13,20,0,16,19,2,13,20,0,16,19,2,0,33,0,6,28,2,13,20,0,15,19,2,13,20,0,15,19,2,0,33,0,0,28,2,0,33,0,0,28,2,0,33,0,6,28,2,12,20,0,14,19,2,24,8,1,20,10,6
2017-07-31T23:59:59Z,30,36,24,22,36,30,20,18,0,1,0,0,0,0,0,0,6,30,6,28,0,36,0,30,0,0,0,0,0,0,0,0,4,32,0,5,29,2,14,22,0,18,20,2,14,22,0,18,20,2,13,23,0,18,21,2,13,23,0,18,21,2,13,23,0,18,21,2,14,22,0,18,21,2,0,36,0,7,30,2,14,22,0,17,20,2,13,23,0,17,21,2,0,36,0,0,30,2,0,36,0,0,30,2,0,36,0,7,30,2,12,23,0,16,21,2,27,8,1,22,9,8
2017-08-01T23:59:50Z,31,37,25,23,37,31,21,19,0,1,0,0,0,0,0,0,5,32,5,29,0,37,0,31,0,0,0,0,0,0,0,0,3,34,0,6,30,2,14,23,0,19,21,2,14,23,0,19,21,2,13,24,0,19,22,2,13,24,0,19,22,2,14,23,0,19,22,2,14,23,0,19,22,2,0,37,0,7,31,2,13,24,0,17,22,2,13,24,0,17,22,2,0,37,0,0,31,2,0,37,0,0,31,2,0,37,0,7,31,2,13,23,0,16,21,2,27,9,1,22,10,9
2017-08-02T23:59:59Z,27,32,20,19,32,27,16,15,0,1,0,0,0,0,0,0,5,27,5,25,0,32,0,27,0,0,0,0,0,0,0,0,3,29,0,3,26,2,13,19,0,15,18,2,13,19,0,15,18,2,13,19,0,15,18,2,13,19,0,15,18,2,13,19,0,15,18,2,13,19,0,15,18,2,0,32,0,5,27,2,13,19,0,14,18,2,13,19,0,14,18,2,0,32,0,0,27,2,0,32,0,0,27,2,0,32,0,5,27,2,12,19,0,13,18,2,23,8,1,19,9,6
2017-08-03T23:59:50Z,31,37,25,23,37,31,21,19,0,1,0,0,0,0,0,0,5,32,5,29,0,37,0,31,0,0,0,0,0,0,0,0,3,34,0,5,30,2,14,23,0,19,21,2,14,23,0,19,21,2,14,23,0,19,22,2,13,24,0,19,22,2,14,23,0,19,22,2,13,24,0,19,22,2,0,37,0,8,31,2,14,23,0,18,21,2,14,23,0,18,21,2,0,37,0,0,31,2,0,37,0,0,31,2,0,37,0,8,31,2,12,24,0,17,22,2,27,9,1,22,10,9
2017-08-04T23:59:51Z,31,38,26,23,38,31,22,19,0,1,0,0,0,0,0,0,7,31,6,28,0,38,0,31,0,0,0,0,0,0,0,0,3,35,0,4,30,2,14,24,0,18,21,2,14,24,0,18,21,2,13,25,0,18,22,2,13,25,0,18,22,2,13,25,0,18,22,2,13,25,0,18,22,2,0,38,0,8,31,2,13,25,0,17,22,2,13,25,0,17,22,2,0,38,0,0,31,2,0,38,0,0,31,2,0,38,0,8,31,2,12,25,0,16,22,2,26,11,1,21,11,8
2017-08-05T23:59:51Z,32,39,27,24,39,32,23,21,0,1,0,0,0,0,0,0,9,30,8,28,0,39,0,32,0,0,0,0,0,0,0,0,3,36,0,4,31,2,14,25,0,19,22,2,14,25,0,19,22,2,13,26,0,19,23,2,13,26,0,19,23,2,13,26,0,19,23,2,13,26,0,19,23,2,0,39,0,9,32,2,13,26,0,18,23,2,13,26,0,18,23,2,0,39,0,0,32,2,0,39,0,0,32,2,0,39,0,9,32,2,12,26,0,17,23,2,26,12,1,21,12,9
2017-08-06T23:59:50Z,30,37,24,22,37,30,20,18,0,1,0,0,0,0,0,0,7,30,6,27,0,37,0,30,0,0,0,0,0,0,0,0,3,34,0,3,29,2,13,24,0,17,21,2,13,24,0,17,21,2,13,24,0,17,21,2,13,24,0,17,21,2,13,24,0,17,21,2,13,24,0,17,21,2,0,37,0,7,30,2,13,24,0,16,21,2,13,24,0,16,21,2,0,37,0,0,30,2,0,37,0,0,30,2,0,37,0,7,30,2,12,24,0,15,21,2,26,10,1,21,10,6
2017-08-07T23:59:59Z,34,41,27,26,41,34,23,21,0,2,0,0,0,0,0,0,7,34,6,31,0,41,0,34,0,0,0,0,0,0,0,0,3,38,0,5,33,3,14,27,0,21,24,2,14,27,0,21,24,2,13,28,0,21,25,2,13,28,0,21,25,2,13,28,0,21,25,2,13,28,0,21,25,2,0,41,0,10,34,2,13,28,0,20,25,2,13,28,0,20,25,2,0,41,0,0,34,2,0,41,0,0,34,2,0,41,0,10,34,2,13,27,0,19,24,2,29,11,1,24,11,10
2017-08-08T23:59:51Z,34,41,27,26,41,34,23,21,0,2,0,0,0,0,0,0,7,34,6,31,0,41,0,34,0,0,0,0,0,0,0,0,3,38,0,5,33,3,14,27,0,21,24,2,14,27,0,21,24,2,13,28,0,21,25,2,13,28,0,21,25,2,14,27,0,21,25,2,14,27,0,21,25,2,0,41,0,10,34,2,14,27,0,20,24,2,14,27,0,20,24,2,0,41,0,0,34,2,0,41,0,0,34,2,0,41,0,10,34,2,13,27,0,19,24,2,29,11,1,24,11,10
2017-08-09T23:59:51Z,32,38,24,24,38,32,20,19,0,2,0,0,0,0,0,0,5,33,5,30,0,38,0,32,0,0,0,0,0,0,0,0,3,35,0,4,31,3,14,24,0,20,22,2,14,24,0,20,22,2,13,25,0,20,23,2,14,24,0,20,22,2,13,25,0,20,23,2,13,25,0,20,23,2,0,38,0,10,32,2,13,25,0,19,23,2,13,25,0,19,23,2,0,38,0,0,32,2,0,38,0,0,32,2,0,38,0,10,32,2,12,25,0,18,23,2,28,9,1,23,10,9
2017-08-10T23:59:51Z,34,41,27,26,41,34,23,21,0,2,0,0,0,0,0,0,7,34,6,31,0,41,0,34,0,0,0,0,0,0,0,0,3,38,0,5,33,3,14,27,0,21,24,2,14,27,0,21,24,2,13,28,0,21,25,2,13,28,0,21,25,2,14,27,0,21,25,2,13,28,0,21,25,2,0,41,0,10,34,2,14,27,0,20,24,2,14,27,0,20,24,2,0,41,0,0,34,2,0,41,0,0,34,2,0,41,0,10,34,2,12,28,0,19,25,2,29,11,1,24,11,10
2017-08-11T23:59:49Z,32,39,25,24,39,32,21,19,0,2,0,0,0,0,0,0,9,30,7,28,0,39,0,32,0,0,0,0,0,0,0,0,3,36,0,4,31,3,14,25,0,18,23,2,14,25,0,18,23,2,14,25,0,18,23,2,14,25,0,18,23,2,14,25,0,18,23,2,14,25,0,18,23,2,0,39,0,7,32,2,14,25,0,17,23,2,14,25,0,17,23,2,0,39,0,0,32,2,0,39,0,0,32,2,0,39,0,7,32,2,13,25,0,16,23,2,26,12,1,22,11,8
2017-08-12T23:59:49Z,32,39,25,24,39,32,21,19,0,2,0,0,0,0,0,0,9,30,7,29,0,39,0,32,0,0,0,0,0,0,0,0,3,36,0,3,31,3,14,25,0,19,23,2,14,25,0,19,23,2,14,25,0,19,23,2,14,25,0,19,23,2,14,25,0,19,23,2,14,25,0,19,23,2,0,39,0,9,32,2,14,25,0,18,23,2,14,25,0,18,23,2,0,39,0,0,32,2,0,39,0,0,32,2,0,39,0,9,32,2,13,25,0,17,23,2,26,12,1,22,12,8
2017-08-13T23:59:51Z,34,42,28,26,42,34,24,21,0,2,0,0,0,0,0,0,9,33,7,31,0,42,0,34,0,0,0,0,0,0,0,0,3,39,0,5,33,3,15,27,0,22,24,2,15,27,0,22,24,2,14,28,0,22,25,2,14,28,0,22,25,2,14,28,0,22,25,2,14,28,0,22,25,2,0,42,0,11,34,2,14,28,0,21,25,2,14,28,0,21,25,2,0,42,0,0,34,2,0,42,0,0,34,2,0,42,0,11,34,2,13,28,0,20,25,2,29,12,1,24,12,10
2017-08-14T23:59:50Z,33,42,28,25,42,33,24,20,0,2,0,0,0,0,0,0,8,34,6,30,0,42,0,33,0,0,0,0,0,0,0,0,3,39,0,5,32,3,15,27,0,21,23,2,17,25,0,21,22,2,15,27,0,21,24,2,16,26,0,21,23,2,16,26,0,21,23,2,17,25,0,21,23,2,0,42,0,10,33,2,17,25,0,20,22,2,17,25,0,20,22,2,0,42,0,0,33,2,0,42,0,0,33,2,0,42,0,10,33,2,15,26,0,19,23,2,28,13,1,23,11,10
2017-08-15T23:59:51Z,32,39,25,24,39,32,21,19,0,2,0,0,0,0,0,0,6,33,5,30,0,39,0,32,0,0,0,0,0,0,0,0,3,36,0,5,31,3,15,24,0,21,22,2,17,22,0,21,21,2,14,25,0,21,23,2,16,23,0,21,22,2,17,22,0,21,22,2,16,23,0,21,22,2,0,39,0,10,32,2,16,23,0,20,22,2,16,23,0,20,22,2,0,39,0,0,32,2,0,39,0,0,32,2,0,39,0,10,32,2,15,23,0,19,22,2,27,11,1,23,11,10
2017-08-16T23:59:50Z,31,38,25,24,38,31,21,19,0,2,0,0,0,0,0,0,6,32,5,29,0,38,0,31,0,0,0,0,0,0,0,0,3,35,0,5,30,5,13,25,0,19,23,4,15,23,0,20,22,4,14,24,0,19,23,4,16,22,0,20,22,4,15,23,0,20,22,4,16,22,0,20,22,4,0,38,0,9,31,4,15,23,0,19,22,4,15,23,0,19,22,4,0,38,0,0,31,4,0,38,0,0,31,4,0,38,0,9,31,4,14,23,0,18,22,4,26,11,1,22,10,10
2017-08-17T23:59:51Z,30,37,24,23,37,30,20,18,0,2,0,0,0,0,0,0,6,31,5,28,0,37,0,30,0,0,0,0,0,0,0,0,3,34,0,5,29,3,13,24,0,18,22,2,15,22,0,19,21,2,13,24,0,18,22,2,16,21,0,19,21,2,15,22,0,19,21,2,15,22,0,19,21,2,0,37,0,8,30,2,16,21,0,18,20,2,16,21,0,18,20,2,0,37,0,0,30,2,0,37,0,0,30,2,0,37,0,8,30,2,15,21,0,18,20,2,26,10,1,22,9,10
2017-08-18T23:59:59Z,29,36,23,22,36,29,19,18,0,2,0,0,0,0,0,0,7,29,6,26,0,36,0,29,0,0,0,0,0,0,0,0,3,33,0,4,28,3,13,23,0,17,21,2,15,21,0,18,20,2,12,24,0,17,22,2,14,22,0,18,21,2,14,22,0,18,21,2,14,22,0,18,21,2,0,36,0,9,29,2,14,22,0,17,21,2,14,22,0,17,21,2,0,36,0,0,29,2,0,36,0,0,29,2,1,35,0,9,28,2,14,21,0,16,20,2,25,10,1,21,9,9
2017-08-19T23:59:59Z,30,37,24,23,37,30,20,18,0,2,0,0,0,0,0,0,8,29,7,27,0,37,0,30,0,0,0,0,0,0,0,0,3,34,0,4,29,3,13,24,0,17,22,2,15,22,0,18,21,2,12,25,0,17,23,2,14,23,0,18,22,2,14,23,0,18,22,2,14,23,0,18,22,2,0,37,0,9,30,2,14,23,0,17,22,2,14,23,0,17,22,2,0,37,0,0,30,2,0,37,0,0,30,2,0,37,0,9,30,2,14,21,1,16,20,3,25,11,1,21,10,9
2017-08-20T23:59:59Z,28,35,22,21,35,28,18,16,0,2,0,0,0,0,0,0,6,29,5,26,0,35,0,28,0,0,0,0,0,0,0,0,4,31,0,4,27,3,13,22,0,16,20,2,15,20,0,17,19,2,12,23,0,16,21,2,14,21,0,17,20,2,14,21,0,17,20,2,14,21,0,17,20,2,0,35,0,8,28,2,15,20,0,16,19,2,15,20,0,16,19,2,0,35,0,0,28,2,0,35,0,0,28,2,0,35,0,8,28,2,13,21,0,15,20,2,25,9,1,21,8,8
2017-08-21T23:59:51Z,31,39,25,23,39,31,20,18,0,2,0,0,0,0,0,0,8,31,6,28,0,39,0,31,0,0,0,0,0,0,0,0,3,36,0,5,30,3,14,25,0,18,22,2,16,23,0,19,21,2,14,25,0,18,23,2,15,24,0,19,22,2,15,24,0,19,22,2,15,24,0,19,22,2,0,39,0,8,31,2,15,24,0,18,22,2,15,24,0,18,22,2,0,39,0,0,31,2,0,39,0,0,31,2,0,39,0,8,31,2,14,24,0,17,22,2,26,12,1,22,10,9
2017-08-22T23:59:51Z,30,38,24,22,38,30,20,17,0,2,0,0,0,0,0,0,8,30,6,27,0,38,0,30,0,0,0,0,0,0,0,0,3,35,0,5,29,3,13,25,0,17,22,2,15,23,0,18,21,2,12,26,0,17,23,2,14,24,0,18,22,2,14,24,0,18,22,2,15,23,0,18,22,2,0,38,0,8,30,2,14,24,0,17,22,2,14,24,0,17,22,2,0,38,0,0,30,2,0,38,0,0,30,2,0,38,0,8,30,2,13,24,0,16,22,2,25,12,1,21,10,9
2017-08-23T23:59:49Z,30,37,23,22,37,30,19,17,0,2,0,0,0,0,0,0,7,30,6,28,0,37,0,30,0,0,0,0,0,0,0,0,3,34,0,4,29,3,14,23,0,19,21,2,16,21,0,20,20,2,13,24,0,19,22,2,15,22,0,20,21,2,15,22,0,20,21,2,15,22,0,20,21,2,0,37,0,10,30,2,15,22,0,19,21,2,15,22,0,19,21,2,0,37,0,0,30,2,0,37,0,0,30,2,0,37,0,10,30,2,15,21,0,18,20,2,25,11,1,21,10,10
2017-08-24T23:59:59Z,27,33,21,20,33,27,16,15,0,2,0,0,0,0,0,0,6,27,5,25,0,33,0,27,0,0,0,0,0,0,0,0,3,30,0,4,26,3,14,19,0,17,18,2,16,17,0,18,17,2,13,20,0,17,19,2,15,18,0,18,18,2,15,18,0,18,18,2,15,18,0,18,18,2,0,33,0,8,27,2,15,18,0,17,18,2,15,18,0,17,18,2,0,33,0,0,27,2,0,33,0,0,27,2,0,33,0,8,27,2,14,18,0,16,18,2,22,10,1,19,9,8
2017-08-25T23:59:50Z,29,35,23,22,35,29,19,17,0,2,0,0,0,0,0,0,5,30,4,27,0,35,0,29,0,0,0,0,0,0,0,0,3,32,0,4,28,3,14,21,0,19,20,2,16,19,0,20,19,2,13,22,0,19,21,2,15,20,0,20,20,2,15,20,0,20,20,2,15,20,0,20,20,2,0,35,0,10,29,2,15,20,0,19,20,2,15,20,0,19,20,2,0,35,0,0,29,2,0,35,0,0,29,2,0,35,0,10,29,2,14,20,0,18,20,2,23,11,1,20,10,10